伽利略0209星导航星座 (GSAT0209 (GALILEO 12))

导读

GALILEO 12是欧洲空间局(ESA)发射的伽利略系列导航卫星,于2015年12月17日发射升空。作为伽利略全球卫星导航系统的组成部分,它为全球用户提供高精度定位、导航与授时服务,增强了欧洲导航系统的全球覆盖能力与服务稳定性,推动了全球卫星导航领域的多元发展。

基本信息
目录编号:
41174
目录名称:
GALILEO 12 (269)
国际标识:
2015-079A
轨道中心:
EARTH
卫星名称:
伽利略0209星
卫星全名:
伽利略0209星导航星座 (GSAT0209 (GALILEO 12))
卫星状态:
在轨 (已飞行3875 天)
发射日期:
2015-12-17 UTC
国别 :
(ESA)
星等 :
--
轨道信息
数据来源 国际轨道数据
星历时间: 2026-07-27T06:14:34+0800
1天前
查看轨道信息
半长轴: 29600.355km
偏心率: 0.0004336
轨道倾角: 55.850°
近地点辐角 0.922°
升交点赤经 100.171°
平近点角 359.127°
近地点: 23209.383km
远地点: 23235.053km
周期: 844.705分钟
每日圈数: 1.704737
详细信息
平衡模式:
三轴稳定
覆盖范围:
全球
运营商:
欧盟空间计划局
运营商所在国:
法国大都会
使用方式:
暂无
卫星简介
伽利略定位系统(Galileo)是一个全球导航卫星系统,于2016年投入使用由欧盟通过ESA创建,由欧盟空间计划局(EUSPA)运营。该系统有两个地面操控站,并且在高纬度地区提供比其他系统更好的定位服务。该卫星仍在工作。
2D轨道图
3D轨道图
轨道高度分析图
轨道倾角分析图
轨道综合分析图
查看轨道综合分析图